User: anonymous   Login
Location: Newark
(25.3833°N, 97.4000°E)
Time: 14:57:28
(UTC+00:00)
Language:

Gurwin Techsat 1B - Orbit

View from above orbital plane
View from above orbital plane
View from above satellite
View from above satellite

Ground track
Ground track

The orbit data is extracted from the following two-line orbital elements,

1 25397U 98043D   20048.77436276 -.00000012  00000-0  14162-4 0  9998
2 25397  98.7165 351.2706 0002264  66.8906 293.2511 14.23679442122603
Epoch (UTC): 17 February 2020 18:35:04
Eccentricity: 0.0002264
inclination: 98.7165°
perigee height: 811 km
apogee height: 814 km
right ascension of ascending node: 351.2706°
argument of perigee: 66.8906°
revolutions per day: 14.23679442
mean anomaly at epoch: 293.2511°
orbit number at epoch: 12260

The dashed part of the orbit path shows where the satellite is in the earth's shadow,  

DLR